#timestamp,LO_Frequency,Hit,StdDev 
1504764015.5,286047000.3,N,1.4
1504764035.4,286047002.8,N,1.4
1504764055.2,286046999.8,N,1.4
1504764075.1,286047000.1,N,1.4
1504764076.0,286047000.1,N,1.3
1504764095.8,286047001.2,N,1.3
1504764115.6,286047000.9,N,1.2
1504764135.5,286047000.1,N,1.2
1504764155.3,286047001.6,N,1.2
1504764175.2,286047001.7,N,1.2
1504764195.9,286047001.5,N,1.1
1504764215.7,286047002.2,N,1.1
1504764235.6,286047002.8,N,1.2
1504764255.4,286043162.1,Y,0.0
1504764275.2,286047000.2,P,0.4
1504764295.1,286047000.0,N,0.5
1504764296.0,286047000.0,N,0.4
1504764315.8,286046999.9,N,0.4
1504764335.7,286047000.6,N,0.4
1504764355.5,286047000.3,N,0.4
1504764375.4,286047000.0,N,0.4
1504764395.2,286047000.2,N,0.3
1504764415.0,286047000.9,N,0.4
1504764415.9,286047000.9,N,0.4
1504764435.8,286046999.9,N,0.4
1504764455.6,286047001.1,N,0.4
1504764475.4,286047001.1,N,0.5
1504764495.3,286047000.1,N,0.5
1504764515.1,286046999.8,N,0.5
1504764535.9,286047000.7,N,0.5
1504764555.7,286047002.3,Y,0.0
1504764575.5,286047001.0,P,0.3
1504764595.4,286047000.2,N,0.3
1504764615.2,286046999.7,N,0.5
1504764635.1,286047000.1,N,0.4
1504764636.0,286047000.1,N,0.4
1504764655.8,286047000.0,N,0.4
1504764675.6,286047000.2,N,0.4
1504764695.5,286046999.9,N,0.3
1504764715.3,286047001.0,N,0.4
1504764735.1,286047000.3,N,0.4
1504764755.9,286047000.3,N,0.4
1504764775.7,286046998.2,Y,0.0
1504764795.6,286046998.2,P,1.0
1504764815.4,286047000.7,N,1.1
1504764835.2,286047000.9,N,1.1
1504764855.1,286047000.4,N,1.0
1504764856.0,286047000.4,N,0.9
1504764875.8,286047002.6,N,1.2
1504764895.7,286047001.3,N,1.1
1504764915.5,286047000.1,N,1.1
1504764935.3,286047000.4,N,1.0
1504764955.2,286047000.1,N,1.0
1504764975.0,286046998.5,N,1.1
1504764975.9,286046998.5,N,1.2
1504764995.8,286047000.5,N,1.1
1504765015.6,286047000.2,N,1.1
1504765035.4,286047000.5,N,1.1
1504765055.3,286047000.6,N,1.0
1504765075.1,286047002.4,N,1.1
1504765095.9,286047002.3,N,1.2
1504765115.7,286047000.3,N,1.1
1504765135.5,286047000.5,N,1.1
1504765155.4,286047000.1,N,1.1
1504765175.2,286047002.2,N,1.1
1504765195.0,286047002.7,N,1.2
1504765195.9,286047002.7,N,1.2
1504765215.8,286047002.2,N,1.2
1504765235.6,286047001.5,N,1.2
1504765255.5,286047004.4,Y,0.0
1504765275.3,286047002.5,P,0.9
1504765295.1,286046999.8,N,1.1
1504765315.9,286046999.8,N,1.1
1504765335.7,286046999.7,N,1.1
1504765355.6,286047000.0,N,1.0
1504765375.4,286047002.5,N,1.2
1504765395.2,286047002.6,N,1.3
1504765415.1,286047002.8,N,1.3
1504765416.0,286047002.8,N,1.3
1504765435.8,286047001.8,N,1.3
1504765455.7,286047002.4,N,1.3
1504765475.5,286047001.8,N,1.2
1504765495.3,286047002.8,N,1.2
1504765515.2,286047002.6,N,1.2
1504765535.0,286047002.4,N,1.2
1504765535.9,286047002.4,N,1.2
1504765555.7,286047002.7,N,1.2
1504765575.6,286047002.4,N,1.1
1504765595.4,286047002.2,N,1.1
1504765615.3,286047002.4,N,1.1
1504765635.1,286047000.0,N,1.1
1504765655.8,286047002.8,N,1.1
1504765675.7,286046999.8,N,1.2
1504765695.5,286046999.8,N,1.2
1504765715.4,286047002.6,N,1.2
1504765735.2,286047002.2,N,1.2
1504765755.0,286047002.4,N,1.2
1504765755.9,286047002.4,N,1.2
1504765775.8,286047002.1,N,1.1
1504765795.6,286047002.1,N,1.1
1504765815.5,286047011.9,Y,0.0
1504765835.3,286047000.3,P,0.8
1504765855.1,286047000.9,N,0.6
1504765875.9,286047000.5,N,0.6
1504765895.7,286047000.0,N,0.6
1504765915.6,286047000.1,N,0.6
1504765935.4,286047002.6,Y,0.0
1504765955.2,286047000.0,P,0.3
1504765975.1,286047000.7,N,0.3
1504765976.0,286047000.7,N,0.3
1504765995.8,286047000.0,N,0.3
1504766015.7,286047000.3,N,0.3
1504766035.5,286047000.7,N,0.3
1504766055.3,286046998.3,Y,0.0
1504766075.2,286046996.7,P,1.9
1504766095.0,286046999.4,N,1.6
1504766095.9,286046999.4,N,1.4
1504766115.8,286046998.3,N,1.3
1504766135.6,286046998.2,N,1.2
1504766155.4,286047001.2,N,1.4
1504766175.3,286047000.8,N,1.4
1504766195.1,286046998.7,N,1.4
1504766215.8,286046999.3,N,1.3
1504766235.7,286046998.3,N,1.3
1504766255.6,286046998.7,N,1.2
1504766275.5,286047000.8,N,1.2
1504766295.3,286046998.6,N,1.2
1504766315.1,286046998.4,N,1.2
1504766335.9,286046998.9,N,1.1
1504766355.7,286046998.2,N,1.1
1504766375.5,286046999.4,N,1.1
1504766395.4,286046998.7,N,1.1
1504766415.2,286047000.8,N,1.1
1504766435.1,286047001.1,N,1.2
1504766436.0,286047001.1,N,1.2
1504766455.8,286047001.2,N,1.2
1504766475.7,286047000.9,N,1.2
1504766495.5,286047000.4,N,1.2
1504766515.3,286047000.8,N,1.2
1504766565.2,286047000.4,E,nan
1504766575.1,286046998.5,N,0.0
1504766595.8,286047000.6,P,1.1
1504766615.7,286047002.7,N,1.7
1504766635.5,286047000.3,N,1.5
1504766655.4,286046999.9,N,1.4
1504766675.2,286047000.9,N,1.3
1504766695.0,286047000.5,N,1.2
1504766695.9,286047000.5,N,1.1
1504766715.8,286042853.7,Y,0.0
1504766735.6,286047000.8,P,0.2
1504766755.5,286046999.3,P,0.6
1504766775.3,286047001.1,N,0.7
1504766795.1,286047000.5,N,0.6
1504766815.9,286046999.8,N,0.6
1504766835.7,286047002.2,Y,0.0
1504766855.6,286046998.6,P,0.9
1504766875.4,286046998.5,N,0.8
1504766895.2,286046998.2,N,0.8
1504766915.1,286047001.2,N,1.2
1504766916.0,286047001.2,N,1.3
1504766935.8,286046998.4,N,1.3
1504766955.7,286046998.5,N,1.2
1504766975.5,286046999.3,N,1.2
1504766995.3,286047000.1,N,1.1
1504767015.2,286046998.3,N,1.1
1504767035.0,286046998.7,N,1.1
1504767035.9,286046998.7,N,1.1
1504767055.7,286047000.9,N,1.1
1504767075.6,286047001.1,N,1.1
1504767095.4,286047001.2,N,1.2
1504767115.3,286047001.0,N,1.2
1504767135.1,286047000.1,N,1.2
1504767136.0,286047000.1,N,1.1
1504767155.8,286047000.4,N,1.1
1504767175.7,286047002.5,N,1.2
1504767195.5,286047002.4,N,1.3
1504767215.4,286047002.7,N,1.4
1504767235.2,286046999.9,N,1.4
1504767255.0,286047002.3,N,1.4
1504767255.9,286047002.3,N,1.5
1504767275.8,286047002.5,N,1.5
1504767295.6,286047002.7,N,1.5
1504767315.4,286046999.7,N,1.5
1504767335.3,286047000.3,N,1.5
1504767355.1,286047001.1,N,1.5
1504767375.9,286047000.9,N,1.4
1504767395.7,286047001.0,N,1.4
1504767415.5,286047000.6,N,1.3
1504767435.4,286047001.1,N,1.3
1504767455.2,286047000.0,N,1.3
1504767475.1,286046999.8,N,1.3
1504767476.0,286046999.8,N,1.2
1504767495.8,286046999.9,N,1.2
1504767515.6,286046999.8,N,1.2
1504767535.5,286047001.5,N,1.1
1504767555.3,286047003.1,N,1.1
1504767575.2,286047003.0,N,1.1
1504767595.9,286047004.1,Y,0.0
